Location: Henham
(51.9333°N, 0.2500°E)
Time: 19:31:33
(UTC+00:00)

COSMO-SKYMED 1 - Pass Details

Date: 23 October 2019
Orbit: 621 x 623 km, 97.9° (Epoch: 20 November)

Event Time Altitude Azimuth Distance (km) Brightness Sun altitude
Rises 19:01:12 0° 8° (N) 2,918 6.0 -21.0°
Reaches altitude 10° 19:03:30 10° 1° (N) 2,006 5.3 -21.3°
Maximum altitude 19:07:32 38° 293° (WNW) 960 4.0 -22.0°
Drops below altitude 10° 19:11:32 10° 226° (SW) 1,991 5.6 -22.6°
Sets 19:13:49 0° 218° (SW) 2,893 6.4 -22.9°
